EZY76FU EGGD-LGSK

Flight info

Callsign EZY76FU
Flight time N/A
Altitude 35000
Route YORQI DCT NUCHU L607 BIG L15 MOTOX DCT RUCAC DCT LESDO DCT ETINO DCT LASAT DCT DEVDI DCT RIPUS DCT RESIA DCT NIKOL DCT AIOSA DCT PAPIZ DCT DIMIS UL604 YNN UY121 AGH T6 EVIKO
Aircraft A320/M-SDE2E3FGHIJ1RWXYZ/LB1

Departure

Time 2026-05-04 14:17
Airport Bristol Airport (EGGD)

Arrival

Time N/A
Airport Skiathos Island National Airport (LGSK)
Time Latitude Longitude Altitude Speed Heading
2026-05-04 14:08 51.38526 -2.71948 608 ft 0 kts 267°
2026-05-04 14:08 51.38526 -2.71947 608 ft 0 kts 267°
2026-05-04 14:10 51.38527 -2.71913 620 ft 4 kts 260°
2026-05-04 14:11 51.38535 -2.71873 611 ft 4 kts 230°
2026-05-04 14:11 51.38551 -2.71857 618 ft 0 kts 177°
2026-05-04 14:13 51.38550 -2.71857 619 ft 2 kts 177°
2026-05-04 14:13 51.38515 -2.71854 614 ft 8 kts 176°
2026-05-04 14:14 51.38441 -2.71855 610 ft 10 kts 200°
2026-05-04 14:14 51.38428 -2.72079 613 ft 11 kts 266°
2026-05-04 14:14 51.38422 -2.72236 611 ft 19 kts 266°
2026-05-04 14:15 51.38402 -2.72752 617 ft 25 kts 266°
2026-05-04 14:15 51.38381 -2.73243 624 ft 15 kts 260°
2026-05-04 14:16 51.38240 -2.73328 624 ft 12 kts 162°
2026-05-04 14:16 51.38216 -2.73230 627 ft 3 kts 87°
2026-05-04 14:17 51.38233 -2.72797 628 ft 74 kts 86°
2026-05-04 14:17 51.38282 -2.71556 612 ft 147 kts 86°
2026-05-04 14:17 51.38406 -2.67862 1889 ft 170 kts 85°
2026-05-04 14:18 51.38455 -2.65875 2193 ft 189 kts 85°
2026-05-04 14:18 51.38605 -2.61146 2739 ft 237 kts 86°
2026-05-04 14:19 51.39172 -2.55724 3968 ft 261 kts 57°
2026-05-04 14:19 51.40526 -2.53776 4736 ft 267 kts 33°
2026-05-04 14:19 51.42135 -2.52246 5528 ft 271 kts 30°
2026-05-04 14:19 51.43797 -2.50777 6384 ft 275 kts 29°
2026-05-04 14:20 51.45485 -2.49287 7133 ft 279 kts 31°
2026-05-04 14:20 51.47164 -2.47679 7882 ft 283 kts 32°
2026-05-04 14:20 51.48855 -2.46002 8595 ft 288 kts 33°
2026-05-04 14:21 51.51582 -2.41382 9973 ft 293 kts 72°
2026-05-04 14:21 51.51893 -2.38173 10599 ft 294 kts 94°
2026-05-04 14:21 51.51706 -2.34786 10782 ft 316 kts 98°
2026-05-04 14:21 51.51454 -2.31161 11013 ft 335 kts 98°
2026-05-04 14:22 51.51180 -2.27404 11572 ft 342 kts 98°
2026-05-04 14:22 51.50901 -2.23590 12212 ft 346 kts 98°
2026-05-04 14:22 51.50623 -2.19729 12860 ft 350 kts 98°
2026-05-04 14:22 51.50346 -2.15827 13496 ft 354 kts 98°
2026-05-04 14:23 51.49791 -2.07901 14648 ft 360 kts 98°
2026-05-04 14:23 51.49509 -2.03890 15236 ft 363 kts 98°
2026-05-04 14:23 51.49224 -1.99857 15846 ft 365 kts 98°
2026-05-04 14:24 51.48934 -1.95792 16443 ft 368 kts 98°
2026-05-04 14:24 51.48642 -1.91701 17032 ft 370 kts 98°
2026-05-04 14:24 51.48348 -1.87588 17594 ft 372 kts 98°
2026-05-04 14:24 51.48049 -1.83450 18162 ft 375 kts 98°
2026-05-04 14:25 51.47747 -1.79289 18654 ft 377 kts 98°
2026-05-04 14:25 51.47130 -1.70876 19590 ft 382 kts 98°
2026-05-04 14:25 51.46762 -1.66642 20043 ft 384 kts 103°
2026-05-04 14:26 51.46195 -1.62445 20483 ft 387 kts 104°
2026-05-04 14:26 51.45620 -1.58222 20923 ft 389 kts 104°
2026-05-04 14:26 51.45038 -1.53967 21374 ft 392 kts 104°
2026-05-04 14:26 51.44449 -1.49685 21802 ft 395 kts 104°
2026-05-04 14:27 51.43856 -1.45379 22241 ft 397 kts 104°
2026-05-04 14:27 51.43255 -1.41040 22686 ft 400 kts 104°
2026-05-04 14:27 51.42649 -1.36663 23145 ft 403 kts 104°
2026-05-04 14:27 51.42040 -1.32256 23561 ft 407 kts 104°
2026-05-04 14:28 51.41425 -1.27823 23896 ft 409 kts 104°
2026-05-04 14:28 51.40805 -1.23361 24264 ft 411 kts 104°
2026-05-04 14:28 51.40180 -1.18880 24638 ft 414 kts 105°
2026-05-04 14:28 51.39614 -1.14349 24959 ft 417 kts 99°
2026-05-04 14:29 51.39117 -1.05086 25585 ft 423 kts 97°
2026-05-04 14:29 51.38645 -0.95669 26214 ft 426 kts 97°
2026-05-04 14:30 51.38400 -0.90923 26540 ft 429 kts 97°
2026-05-04 14:30 51.38150 -0.86155 26827 ft 431 kts 98°
2026-05-04 14:30 51.37645 -0.76559 27446 ft 435 kts 98°
2026-05-04 14:31 51.37390 -0.71724 27745 ft 437 kts 98°
2026-05-04 14:31 51.36862 -0.61980 28360 ft 441 kts 98°
2026-05-04 14:32 51.36319 -0.52155 28924 ft 445 kts 98°
2026-05-04 14:32 51.36042 -0.47213 29199 ft 447 kts 98°
2026-05-04 14:32 51.35760 -0.42243 29461 ft 449 kts 98°
2026-05-04 14:32 51.35478 -0.37267 29728 ft 450 kts 98°
2026-05-04 14:33 51.35194 -0.32263 29986 ft 452 kts 98°
2026-05-04 14:33 51.34906 -0.27247 30217 ft 454 kts 98°
2026-05-04 14:33 51.34613 -0.22216 30437 ft 455 kts 98°
2026-05-04 14:33 51.34319 -0.17189 30739 ft 454 kts 98°
2026-05-04 14:34 51.34021 -0.12174 31042 ft 453 kts 98°
2026-05-04 14:34 51.33721 -0.07159 31367 ft 452 kts 98°
2026-05-04 14:34 51.33422 -0.02163 31701 ft 451 kts 98°
2026-05-04 14:34 51.32972 0.02777 32017 ft 447 kts 106°
2026-05-04 14:35 51.32085 0.07501 32329 ft 442 kts 115°
2026-05-04 14:35 51.30929 0.12043 32634 ft 441 kts 115°
2026-05-04 14:35 51.29775 0.16570 32952 ft 440 kts 115°
2026-05-04 14:35 51.28626 0.21088 33252 ft 439 kts 115°
2026-05-04 14:36 51.27479 0.25605 33551 ft 438 kts 115°
2026-05-04 14:36 51.26351 0.30042 33830 ft 437 kts 116°
2026-05-04 14:36 51.25205 0.34524 34115 ft 436 kts 116°
2026-05-04 14:36 51.24044 0.39052 34361 ft 435 kts 116°
2026-05-04 14:37 51.22909 0.43462 34563 ft 435 kts 116°
2026-05-04 14:37 51.21760 0.47922 34785 ft 435 kts 116°
2026-05-04 14:37 51.20607 0.52384 34947 ft 436 kts 116°
2026-05-04 14:38 51.18311 0.61273 35004 ft 432 kts 116°
2026-05-04 14:38 51.16021 0.70124 35000 ft 431 kts 116°
2026-05-04 14:39 51.13719 0.78949 35010 ft 432 kts 116°
2026-05-04 14:39 51.11413 0.87764 35022 ft 432 kts 116°
2026-05-04 14:40 51.07935 1.00979 35015 ft 431 kts 116°
2026-05-04 14:40 51.05612 1.09768 35015 ft 431 kts 116°
2026-05-04 14:41 51.03287 1.18557 35006 ft 431 kts 116°
2026-05-04 14:42 50.98599 1.36110 34996 ft 432 kts 117°
2026-05-04 14:42 50.96265 1.44817 34992 ft 432 kts 117°
2026-05-04 14:43 50.93903 1.53585 34982 ft 432 kts 117°
2026-05-04 14:43 50.91527 1.62336 34985 ft 433 kts 117°
2026-05-04 14:44 50.89080 1.71035 34980 ft 430 kts 123°
2026-05-04 14:44 50.85504 1.78450 34984 ft 421 kts 140°
2026-05-04 14:45 50.81263 1.84832 34982 ft 421 kts 140°
2026-05-04 14:45 50.77021 1.91221 34982 ft 421 kts 140°
2026-05-04 14:46 50.72805 1.97560 34979 ft 421 kts 140°
2026-05-04 14:46 50.68558 2.03931 34976 ft 421 kts 140°
2026-05-04 14:47 50.64302 2.10289 34974 ft 421 kts 140°
2026-05-04 14:47 50.60045 2.16629 34975 ft 421 kts 140°
2026-05-04 14:48 50.55789 2.22965 34972 ft 421 kts 140°
2026-05-04 14:48 50.51535 2.29277 34972 ft 420 kts 140°
2026-05-04 14:49 50.47281 2.35567 34966 ft 420 kts 140°
2026-05-04 14:49 50.43025 2.41839 34964 ft 419 kts 141°
2026-05-04 14:50 50.38774 2.48090 34962 ft 419 kts 141°
2026-05-04 14:50 50.34531 2.54325 34958 ft 418 kts 141°
2026-05-04 14:51 50.30290 2.60549 34956 ft 418 kts 141°
2026-05-04 14:51 50.26045 2.66754 34958 ft 418 kts 141°
2026-05-04 14:52 50.21819 2.72899 34963 ft 418 kts 141°
2026-05-04 14:52 50.17563 2.79069 34964 ft 417 kts 141°
2026-05-04 14:53 50.13311 2.85232 34960 ft 417 kts 141°
2026-05-04 14:53 50.09062 2.91373 34958 ft 417 kts 141°
2026-05-04 14:54 50.04810 2.97506 34958 ft 417 kts 141°
2026-05-04 14:54 50.00555 3.03631 34953 ft 417 kts 141°
2026-05-04 14:55 49.96296 3.09744 34948 ft 417 kts 141°
2026-05-04 14:55 49.92034 3.15849 34960 ft 417 kts 141°
2026-05-04 14:56 49.87765 3.21945 34951 ft 417 kts 141°
2026-05-04 14:56 49.83516 3.27988 34953 ft 417 kts 141°
2026-05-04 14:57 49.79469 3.34455 34955 ft 422 kts 132°
2026-05-04 14:57 49.75828 3.41584 34954 ft 422 kts 133°
2026-05-04 14:58 49.72160 3.48681 34950 ft 422 kts 133°
2026-05-04 14:58 49.69111 3.54571 34950 ft 422 kts 133°
2026-05-04 14:59 49.64824 3.62847 34952 ft 422 kts 133°
2026-05-04 15:00 49.59307 3.73459 34954 ft 422 kts 133°
2026-05-04 15:00 49.55655 3.80466 34956 ft 422 kts 133°
2026-05-04 15:01 49.50133 3.91028 34953 ft 422 kts 133°
2026-05-04 15:01 49.46440 3.98043 34955 ft 422 kts 134°
2026-05-04 15:02 49.42747 4.05058 34958 ft 422 kts 134°
2026-05-04 15:02 49.39058 4.12080 34963 ft 422 kts 134°
2026-05-04 15:03 49.35362 4.19083 34959 ft 422 kts 134°
2026-05-04 15:03 49.31656 4.26067 34963 ft 422 kts 134°
2026-05-04 15:04 49.27942 4.33031 34974 ft 422 kts 134°
2026-05-04 15:04 49.24224 4.39991 34969 ft 422 kts 134°
2026-05-04 15:05 49.20507 4.46945 34970 ft 422 kts 134°
2026-05-04 15:05 49.16812 4.53840 34970 ft 422 kts 134°
2026-05-04 15:06 49.13093 4.60772 34965 ft 422 kts 134°
2026-05-04 15:07 49.07505 4.71145 34974 ft 421 kts 134°
2026-05-04 15:07 49.03775 4.78036 34971 ft 421 kts 134°
2026-05-04 15:08 49.00676 4.83756 34979 ft 421 kts 135°
2026-05-04 15:08 48.96940 4.90625 34979 ft 421 kts 135°
2026-05-04 15:09 48.93201 4.97470 34980 ft 421 kts 135°
2026-05-04 15:09 48.89459 5.04307 34981 ft 421 kts 134°
2026-05-04 15:10 48.84488 5.15429 34980 ft 425 kts 129°
2026-05-04 15:11 48.79587 5.26635 34978 ft 425 kts 129°
2026-05-04 15:11 48.76313 5.34102 34976 ft 425 kts 129°
2026-05-04 15:12 48.73053 5.41516 34975 ft 426 kts 129°
2026-05-04 15:12 48.69771 5.48977 34983 ft 426 kts 129°
2026-05-04 15:13 48.66482 5.56428 34987 ft 426 kts 129°
2026-05-04 15:13 48.63186 5.63873 34991 ft 426 kts 129°
2026-05-04 15:14 48.59877 5.71309 34994 ft 426 kts 129°
2026-05-04 15:14 48.56565 5.78740 34992 ft 427 kts 129°
2026-05-04 15:15 48.53244 5.86174 34997 ft 427 kts 129°
2026-05-04 15:15 48.49924 5.93595 34996 ft 427 kts 129°
2026-05-04 15:16 48.44925 6.04712 34998 ft 427 kts 129°
2026-05-04 15:17 48.39943 6.15752 34998 ft 427 kts 129°
2026-05-04 15:17 48.34929 6.26813 34999 ft 427 kts 129°
2026-05-04 15:18 48.31582 6.34177 35000 ft 427 kts 129°
2026-05-04 15:19 48.26546 6.45202 34995 ft 427 kts 130°
2026-05-04 15:19 48.21500 6.56215 34998 ft 427 kts 130°
2026-05-04 15:20 48.18126 6.63552 34996 ft 428 kts 130°
2026-05-04 15:20 48.14745 6.70879 34994 ft 427 kts 130°
2026-05-04 15:21 48.11292 6.78118 34992 ft 427 kts 131°
2026-05-04 15:22 48.06053 6.88896 34988 ft 427 kts 131°
2026-05-04 15:22 48.00823 6.99699 34981 ft 428 kts 131°
2026-05-04 15:23 47.97340 7.06907 34979 ft 428 kts 131°
2026-05-04 15:23 47.93845 7.14092 34972 ft 428 kts 131°
2026-05-04 15:24 47.86830 7.28470 34975 ft 430 kts 131°
2026-05-04 15:25 47.83331 7.35610 34983 ft 430 kts 131°
2026-05-04 15:26 47.78030 7.46402 34992 ft 431 kts 131°
2026-05-04 15:26 47.72695 7.57179 35001 ft 432 kts 131°
2026-05-04 15:27 47.67353 7.67974 35006 ft 433 kts 131°
2026-05-04 15:28 47.62000 7.78753 35002 ft 433 kts 131°
2026-05-04 15:29 47.56623 7.89513 34993 ft 433 kts 131°
2026-05-04 15:30 47.44029 8.14574 34955 ft 435 kts 131°
2026-05-04 15:31 47.38597 8.25312 34956 ft 435 kts 131°
2026-05-04 15:32 47.29514 8.43196 34957 ft 436 kts 131°
2026-05-04 15:34 47.20488 8.61123 34961 ft 438 kts 129°
2026-05-04 15:34 47.15138 8.72026 34973 ft 438 kts 129°
2026-05-04 15:35 47.09747 8.82876 34991 ft 439 kts 130°
2026-05-04 15:36 47.04334 8.93689 34993 ft 439 kts 130°
2026-05-04 15:36 47.00724 9.00906 34992 ft 438 kts 130°
2026-05-04 15:37 46.97100 9.08102 35004 ft 439 kts 130°
2026-05-04 15:37 46.93470 9.15294 35015 ft 439 kts 130°
2026-05-04 15:38 46.89840 9.22488 35020 ft 440 kts 130°
2026-05-04 15:38 46.86204 9.29680 35032 ft 440 kts 130°
2026-05-04 15:39 46.82582 9.36803 35037 ft 440 kts 130°
2026-05-04 15:40 46.77111 9.47550 35057 ft 440 kts 130°
2026-05-04 15:40 46.73452 9.54700 35080 ft 440 kts 130°
2026-05-04 15:41 46.69794 9.61845 35102 ft 440 kts 130°
2026-05-04 15:41 46.66129 9.68978 35110 ft 439 kts 130°
2026-05-04 15:42 46.62459 9.76098 35136 ft 441 kts 130°
2026-05-04 15:42 46.58777 9.83233 35144 ft 441 kts 130°
2026-05-04 15:43 46.55087 9.90359 35145 ft 442 kts 130°
2026-05-04 15:43 46.51419 9.97439 35140 ft 441 kts 130°
2026-05-04 15:44 46.47711 10.04544 35143 ft 441 kts 131°
2026-05-04 15:44 46.43843 10.11444 35135 ft 441 kts 134°
2026-05-04 15:45 46.39849 10.18179 35130 ft 440 kts 134°
2026-05-04 15:45 46.35857 10.24907 35122 ft 440 kts 134°
2026-05-04 15:46 46.31889 10.31668 35111 ft 441 kts 133°
2026-05-04 15:46 46.27939 10.38442 35109 ft 441 kts 133°
2026-05-04 15:47 46.23976 10.45207 35112 ft 441 kts 133°
2026-05-04 15:47 46.19999 10.51951 35106 ft 441 kts 134°
2026-05-04 15:48 46.16022 10.58686 35103 ft 441 kts 134°
2026-05-04 15:48 46.10070 10.68726 35099 ft 441 kts 134°
2026-05-04 15:49 46.06051 10.75487 35092 ft 441 kts 134°
2026-05-04 15:49 46.02084 10.82161 35085 ft 442 kts 134°
2026-05-04 15:50 45.98085 10.88865 35079 ft 442 kts 134°
2026-05-04 15:50 45.94079 10.95558 35070 ft 442 kts 133°
2026-05-04 15:51 45.90069 11.02249 35072 ft 442 kts 134°
2026-05-04 15:51 45.86053 11.08937 35071 ft 443 kts 134°
2026-05-04 15:52 45.82022 11.15613 35067 ft 443 kts 134°
2026-05-04 15:52 45.77988 11.22284 35068 ft 443 kts 134°
2026-05-04 15:53 45.73953 11.28953 35068 ft 443 kts 134°
2026-05-04 15:53 45.69912 11.35609 35069 ft 443 kts 134°
2026-05-04 15:54 45.65867 11.42254 35062 ft 443 kts 134°
2026-05-04 15:54 45.61820 11.48890 35061 ft 443 kts 134°
2026-05-04 15:55 45.57763 11.55517 35057 ft 443 kts 134°
2026-05-04 15:55 45.53733 11.62094 35054 ft 443 kts 134°
2026-05-04 15:56 45.49672 11.68715 35058 ft 443 kts 134°
2026-05-04 15:56 45.45604 11.75322 35060 ft 443 kts 134°
2026-05-04 15:57 45.41529 11.81919 35058 ft 444 kts 134°
2026-05-04 15:57 45.37452 11.88506 35064 ft 444 kts 134°
2026-05-04 15:58 45.33368 11.95093 35061 ft 444 kts 134°
2026-05-04 15:58 45.29281 12.01679 35063 ft 444 kts 134°
2026-05-04 15:59 45.25186 12.08247 35068 ft 444 kts 134°
2026-05-04 15:59 45.21085 12.14798 35074 ft 444 kts 134°
2026-05-04 16:00 45.17012 12.21304 35074 ft 444 kts 134°
2026-05-04 16:00 45.12910 12.27837 35076 ft 444 kts 134°
2026-05-04 16:01 45.08806 12.34360 35073 ft 443 kts 134°
2026-05-04 16:01 45.04705 12.40866 35072 ft 443 kts 134°
2026-05-04 16:02 45.00603 12.47361 35076 ft 443 kts 134°
2026-05-04 16:03 44.94441 12.57080 35072 ft 443 kts 134°
2026-05-04 16:03 44.91023 12.62457 35085 ft 443 kts 134°
2026-05-04 16:04 44.86894 12.68944 35079 ft 444 kts 134°
2026-05-04 16:04 44.80695 12.78649 35075 ft 445 kts 134°
2026-05-04 16:05 44.76558 12.85116 35074 ft 445 kts 134°
2026-05-04 16:06 44.70351 12.94790 35067 ft 445 kts 135°
2026-05-04 16:07 44.62013 13.07683 35069 ft 446 kts 135°
2026-05-04 16:08 44.53701 13.20508 35070 ft 446 kts 134°
2026-05-04 16:09 44.43260 13.36574 35083 ft 446 kts 134°
2026-05-04 16:10 44.34877 13.49361 35082 ft 446 kts 134°
2026-05-04 16:11 44.26506 13.62096 35076 ft 447 kts 134°
2026-05-04 16:12 44.14176 13.81703 35080 ft 449 kts 131°
2026-05-04 16:13 44.06185 13.95012 35080 ft 449 kts 132°
2026-05-04 16:14 43.98058 14.08240 35079 ft 450 kts 131°
2026-05-04 16:16 43.87902 14.24747 35089 ft 450 kts 131°
2026-05-04 16:17 43.77728 14.41198 35078 ft 452 kts 131°
2026-05-04 16:18 43.69521 14.54396 35075 ft 453 kts 131°
2026-05-04 16:19 43.59209 14.70887 35075 ft 455 kts 131°
2026-05-04 16:20 43.48855 14.87363 35076 ft 456 kts 131°
2026-05-04 16:22 43.38417 15.03873 35078 ft 458 kts 131°
2026-05-04 16:23 43.36349 15.07131 35078 ft 459 kts 131°